Topeka, KS

6:30 PM CDT on April 30, 2017 (GMT -0500)
Billard Municipal

Weather History for KTOP - June, 2014

Change the Weather History Date:

Wednesday, June 4, 2014

  Actual Average Record
Temperature  
Mean Temperature 75 °F 71 °F  
Max Temperature 84 °F 82 °F 100 °F (1933)
Min Temperature 66 °F 60 °F 44 °F (1990)
Degree Days  
Heating Degree Days 0 1  
Month to date heating degree days 0 4  
Since 1 June heating degree days 0 4  
Since 1 July heating degree days 5440 5017  
Cooling Degree Days 10 7  
Month to date cooling degree days 47 25  
Year to date cooling degree days 264 151  
Since 1 June cooling degree days 47 25  
Growing Degree Days 25 (Base 50)    
Moisture  
Dew Point 68 °F    
Average Humidity 76    
Maximum Humidity 87    
Minimum Humidity 65    
Precipitation  
Precipitation 0.05 in 0.17 in 3.06 in (2002)
Month to date precipitation 1.35 0.68  
Year to date precipitation 8.82 13.79  
Snow  
Snow 0.00 in 0.00 in T in (1979)
Month to date snowfall 0.0 0.0  
Year to date snowfall 23.1 11.3  
Since 1 July snowfall 27.4 17.8  
Snow Depth 0.00 in    
Sea Level Pressure  
Sea Level Pressure 29.78 in    
Wind  
Wind Speed 9 mph (NE)    
Max Wind Speed 31 mph    
Max Gust Speed 44 mph    
Visibility 10 miles    
Events Rain , Thunderstorm    
T = Trace of Precipitation, MM = Missing Value Source: NWS Daily Summary

Daily Weather History Graph

Daily Weather History Graph

Search for Another Location

Airport or City:

Trip Planner

Search our weather history database for the weather conditions in past years. The results will help you decide how hot, cold, wet, or windy it might be!

Date:

Astronomy

Jun. 04, 2014 Rise Set
Actual Time 5:57 AM CDT 8:44 PM CDT
Civil Twilight 5:25 AM CDT 9:16 PM CDT
Nautical Twilight 4:46 AM CDT 9:56 PM CDT
Astronomical Twilight 4:00 AM CDT 10:41 PM CDT
Moon 12:15 PM CDT (6/4) 12:45 AM CDT (6/4)
Length of Visible Light 15h 50m
Length of Day
14h 47m
Waxing Crescent, 39% of the Moon is Illuminated
Jun 4
Waxing Crescent
Jun 5
First Quarter
Jun 12
Full
Jun 19
Last Quarter
Jun 27
New

Hourly Weather History & Observations

Time (CDT) Temp. Heat Index Dew Point Humidity Pressure Visibility Wind Dir Wind Speed Gust Speed Precip Events Conditions
12:53 AM 80.6 °F 83.9 °F 69.8 °F 70% 29.73 in 10.0 mi South 5.8 mph - N/A   Clear
1:53 AM 80.1 °F 83.2 °F 70.0 °F 71% 29.73 in 10.0 mi ENE 5.8 mph - N/A   Mostly Cloudy
2:19 AM 73.9 °F - 66.9 °F 79% 29.84 in 10.0 mi North 20.7 mph 39.1 mph 0.00 in Rain Light Rain
2:28 AM 71.1 °F - 66.0 °F 84% 29.85 in 5.0 mi NNE 25.3 mph 36.8 mph 0.04 in Rain , Thunderstorm Light Thunderstorms and Rain
2:43 AM 69.1 °F - 62.1 °F 78% 29.80 in 10.0 mi NE 20.7 mph 39.1 mph 0.05 in Rain , Thunderstorm Light Rain
2:53 AM 68.0 °F - 63.0 °F 84% 29.81 in 10.0 mi East 12.7 mph 20.7 mph 0.05 in   Mostly Cloudy
3:53 AM 66.0 °F - 63.0 °F 90% 29.78 in 10.0 mi ESE 11.5 mph - N/A   Mostly Cloudy
4:53 AM 66.9 °F - 63.0 °F 87% 29.77 in 10.0 mi ESE 10.4 mph - N/A   Overcast
5:53 AM 68.0 °F - 63.0 °F 84% 29.74 in 10.0 mi SE 12.7 mph - N/A   Mostly Cloudy
6:53 AM 69.1 °F - 62.1 °F 78% 29.73 in 10.0 mi SSE 10.4 mph - N/A   Clear
7:53 AM 72.0 °F - 63.0 °F 73% 29.73 in 10.0 mi SSE 12.7 mph - N/A   Clear
8:53 AM 75.9 °F - 64.9 °F 69% 29.74 in 10.0 mi SSE 13.8 mph - N/A   Clear
9:53 AM 79.0 °F - 68.0 °F 69% 29.76 in 10.0 mi SE 8.1 mph - N/A   Mostly Cloudy
10:02 AM 80.1 °F 82.7 °F 68.0 °F 67% 29.79 in 10.0 mi Variable 4.6 mph - N/A   Overcast
10:44 AM 79.0 °F - 68.0 °F 69% 29.79 in 10.0 mi NE 4.6 mph - N/A   Overcast
10:53 AM 79.0 °F - 69.1 °F 72% 29.76 in 10.0 mi NE 6.9 mph - N/A   Overcast
11:01 AM 79.0 °F - 69.1 °F 72% 29.79 in 10.0 mi NE 6.9 mph - N/A   Overcast
11:53 AM 81.0 °F 84.1 °F 69.1 °F 67% 29.77 in 10.0 mi NE 6.9 mph - N/A   Mostly Cloudy
12:20 PM 82.9 °F 87.0 °F 70.0 °F 65% 29.80 in 10.0 mi NNE 10.4 mph - N/A   Mostly Cloudy
12:53 PM 81.0 °F 84.4 °F 70.0 °F 69% 29.77 in 10.0 mi North 12.7 mph - N/A   Mostly Cloudy
1:04 PM 82.9 °F 87.0 °F 70.0 °F 65% 29.80 in 10.0 mi NNE 11.5 mph - N/A   Overcast
1:53 PM 82.0 °F 85.9 °F 70.0 °F 67% 29.78 in 10.0 mi NNE 10.4 mph - N/A   Clear
2:53 PM 82.9 °F 87.0 °F 70.0 °F 65% 29.78 in 10.0 mi North 11.5 mph - N/A   Scattered Clouds
3:02 PM 82.4 °F 87.2 °F 71.6 °F 70% 29.80 in 10.0 mi NNE 13.8 mph 18.4 mph N/A   Mostly Cloudy
3:48 PM 82.4 °F 87.2 °F 71.6 °F 70% 29.80 in 10.0 mi NE 9.2 mph - N/A   Scattered Clouds
3:53 PM 82.9 °F 87.0 °F 70.0 °F 65% 29.78 in 10.0 mi NE 9.2 mph 16.1 mph N/A   Scattered Clouds
4:22 PM 82.9 °F 87.0 °F 70.0 °F 65% 29.80 in 10.0 mi NNE 9.2 mph - N/A   Mostly Cloudy
4:53 PM 82.9 °F 87.0 °F 70.0 °F 65% 29.78 in 10.0 mi NE 9.2 mph - N/A   Overcast
5:34 PM 82.9 °F 87.0 °F 70.0 °F 65% 29.80 in 10.0 mi ENE 9.2 mph - N/A   Overcast
5:53 PM 82.0 °F 85.9 °F 70.0 °F 67% 29.78 in 10.0 mi NE 9.2 mph - N/A   Overcast
6:23 PM 81.0 °F 84.1 °F 69.1 °F 67% 29.81 in 10.0 mi NNE 11.5 mph - N/A   Overcast
6:53 PM 81.0 °F 84.4 °F 70.0 °F 69% 29.79 in 10.0 mi NE 9.2 mph - N/A   Overcast
7:53 PM 79.0 °F - 69.1 °F 72% 29.80 in 10.0 mi NE 9.2 mph - N/A   Mostly Cloudy
8:53 PM 77.0 °F - 69.1 °F 76% 29.80 in 10.0 mi NE 9.2 mph - N/A   Partly Cloudy
9:53 PM 75.2 °F - 68.0 °F 78% 29.83 in 10.0 mi ENE 3.5 mph - N/A   Clear
10:53 PM 73.9 °F - 68.0 °F 82% 29.81 in 10.0 mi Calm Calm - N/A   Clear
11:53 PM 73.0 °F - 68.0 °F 84% 29.81 in 10.0 mi NE 3.5 mph - N/A   Clear